Location: Eschentzwiller
(47.7125°N, 7.3981°E)
Time: 01:20:06
(UTC+00:00)

FALCON 9 DEB - Pass Details

Date: 27 October 2020
Orbit: 378 x 397 km, 53.0° (Epoch: 26 November)

Event Time Altitude Azimuth Distance (km) Brightness Sun altitude
Rises 17:07:25 0° 227° (SW) 2,299 7.9 -8.5°
Reaches altitude 10° 17:09:31 10° 222° (SW) 1,442 6.6 -8.9°
Maximum altitude 17:12:39 51° 146° (SE) 509 3.3 -9.4°
Enters shadow 17:15:11 15° 72° (ENE) 1,196 4.7 -9.8°
